| time (UTC) | temp C | wind direction | speed KPH | gust KPH | rain 1hr cm | rain 24hr cm | rain mn cm | humidity % | barometer mb |
| 20260906110950 | 17 | 237 | 0.0 | 0.0 | 0.00 | 0.00 | 0.00 | 99 | 1005.0 |
| 20260906110445 | 17 | 237 | 0.0 | 0.0 | 0.00 | 0.00 | 0.00 | 99 | 1005.1 |
| 20260906105944 | 17 | 237 | 0.0 | 0.0 | 0.00 | 0.00 | 0.00 | 99 | 1004.8 |
| 20260906105439 | 17 | 237 | 0.0 | 0.0 | 0.00 | 0.00 | 0.00 | 99 | 1004.8 |
| 20260906104936 | 17 | 237 | 0.0 | 0.0 | 0.00 | 0.00 | 0.00 | 99 | 1004.6 |
| 20260906104434 | 17 | 237 | 0.0 | 0.0 | 0.00 | 0.00 | 0.00 | 99 | 1004.6 |
| 20260906103933 | 17 | 237 | 0.0 | 0.0 | 0.00 | 0.00 | 0.00 | 99 | 1004.7 |
| 20260906103432 | 17 | 237 | 0.0 | 0.0 | 0.00 | 0.00 | 0.00 | 99 | 1004.6 |
| 20260906102927 | 17 | 237 | 0.0 | 0.0 | 0.00 | 0.00 | 0.00 | 99 | 1004.7 |
| 20260906102427 | 17 | 237 | 0.0 | 0.0 | 0.00 | 0.00 | 0.00 | 99 | 1004.7 |
| 20260906101921 | 17 | 237 | 0.0 | 0.0 | 0.00 | 0.00 | 0.00 | 99 | 1004.6 |
| 20260906101417 | 16 | 237 | 0.0 | 0.0 | 0.00 | 0.00 | 0.00 | 99 | 1004.4 |
| 20260906100912 | 16 | 237 | 0.0 | 0.0 | 0.00 | 0.00 | 0.00 | 99 | 1004.4 |
| 20260906100412 | 16 | 237 | 0.0 | 0.0 | 0.00 | 0.00 | 0.00 | 99 | 1004.4 |
| 20260906095907 | 16 | 237 | 0.0 | 0.0 | 0.00 | 0.00 | 0.00 | 99 | 1004.6 |
| 20260906095402 | 16 | 237 | 0.0 | 0.0 | 0.00 | 0.00 | 0.00 | 99 | 1004.6 |
| 20260906094856 | 16 | 237 | 0.0 | 0.0 | 0.00 | 0.00 | 0.00 | 99 | 1004.3 |
| 20260906094351 | 15 | 237 | 0.0 | 0.0 | 0.00 | 0.00 | 0.00 | 99 | 1004.3 |
| 20260906093847 | 15 | 237 | 0.0 | 0.0 | 0.00 | 0.00 | 0.00 | 99 | 1004.6 |
| 20260906093342 | 15 | 237 | 0.0 | 0.0 | 0.00 | 0.00 | 0.00 | 99 | 1004.1 |
| 20260906092831 | 15 | 237 | 0.0 | 0.0 | 0.00 | 0.00 | 0.00 | 99 | 1004.1 |
| 20260906092325 | 15 | 237 | 0.0 | 0.0 | 0.00 | 0.00 | 0.00 | 99 | 1004.0 |
| 20260906091821 | 16 | 237 | 0.0 | 0.0 | 0.00 | 0.00 | 0.00 | 99 | 1004.1 |
| 20260906091318 | 16 | 237 | 0.0 | 0.0 | 0.00 | 0.00 | 0.00 | 99 | 1003.7 |
| 20260906090814 | 16 | 237 | 0.0 | 0.0 | 0.00 | 0.00 | 0.00 | 99 | 1004.0 |
| 20260906090312 | 16 | 237 | 0.0 | 0.0 | 0.00 | 0.00 | 0.00 | 99 | 1004.0 |
| 20260906085807 | 16 | 237 | 0.0 | 0.0 | 0.00 | 0.00 | 0.00 | 99 | 1003.8 |
| 20260906085307 | 16 | 237 | 0.0 | 0.0 | 0.00 | 0.00 | 0.00 | 99 | 1003.9 |
| 20260906084801 | 16 | 237 | 0.0 | 0.0 | 0.00 | 0.00 | 0.00 | 99 | 1003.9 |
| 20260906084301 | 16 | 237 | 0.0 | 0.0 | 0.00 | 0.00 | 0.00 | 99 | 1003.8 |
| 20260906083755 | 16 | 237 | 0.0 | 0.0 | 0.00 | 0.00 | 0.00 | 99 | 1003.9 |
| 20260906083250 | 16 | 237 | 0.0 | 0.0 | 0.00 | 0.00 | 0.00 | 99 | 1003.8 |
| 20260906082739 | 16 | 237 | 0.0 | 0.0 | 0.00 | 0.00 | 0.00 | 99 | 1003.8 |
| 20260906082235 | 16 | 237 | 0.0 | 0.0 | 0.00 | 0.00 | 0.00 | 99 | 1004.0 |
| 20260906081730 | 16 | 237 | 0.0 | 0.0 | 0.00 | 0.00 | 0.00 | 99 | 1003.9 |
| 20260906081224 | 16 | 237 | 0.0 | 0.0 | 0.00 | 0.00 | 0.00 | 99 | 1004.0 |
| 20260906080721 | 16 | 237 | 0.0 | 0.0 | 0.00 | 0.00 | 0.00 | 99 | 1004.1 |
| 20260906080218 | 16 | 237 | 0.0 | 0.0 | 0.00 | 0.00 | 0.00 | 99 | 1003.8 |
| 20260906075712 | 16 | 237 | 0.0 | 0.0 | 0.00 | 0.00 | 0.00 | 99 | 1003.8 |
| 20260906075207 | 16 | 237 | 0.0 | 0.0 | 0.00 | 0.00 | 0.00 | 99 | 1003.7 |
| 20260906074702 | 16 | 239 | 0.0 | 0.0 | 0.00 | 0.00 | 0.00 | 99 | 1003.5 |
| 20260906074201 | 16 | 257 | 0.0 | 0.0 | 0.00 | 0.00 | 0.00 | 99 | 1003.6 |
| 20260906073656 | 16 | 247 | 0.0 | 1.6 | 0.00 | 0.00 | 0.00 | 99 | 1003.7 |
| 20260906073151 | 16 | 274 | 0.0 | 0.0 | 0.00 | 0.00 | 0.00 | 99 | 1003.6 |
| 20260906072646 | 16 | 275 | 0.0 | 0.0 | 0.00 | 0.00 | 0.00 | 99 | 1003.8 |
| 20260906072136 | 16 | 275 | 0.0 | 1.6 | 0.00 | 0.00 | 0.00 | 99 | 1003.7 |
| 20260906071632 | 16 | 238 | 0.0 | 0.0 | 0.00 | 0.00 | 0.00 | 99 | 1003.8 |
| 20260906071126 | 16 | 240 | 0.0 | 0.0 | 0.00 | 0.00 | 0.00 | 99 | 1003.7 |
| 20260906070623 | 16 | 226 | 0.0 | 0.0 | 0.00 | 0.00 | 0.00 | 99 | 1003.8 |
| 20260906070119 | 16 | 226 | 0.0 | 0.0 | 0.00 | 0.00 | 0.00 | 99 | 1003.9 |
| 20260906065618 | 16 | 226 | 0.0 | 0.0 | 0.00 | 0.00 | 0.00 | 99 | 1003.8 |
| 20260906065113 | 16 | 226 | 0.0 | 0.0 | 0.00 | 0.00 | 0.00 | 99 | 1004.0 |
| 20260906064603 | 16 | 226 | 0.0 | 0.0 | 0.00 | 0.00 | 0.00 | 99 | 1004.3 |
| 20260906064052 | 17 | 226 | 0.0 | 0.0 | 0.00 | 0.00 | 0.00 | 99 | 1004.4 |
| 20260906063547 | 16 | 226 | 0.0 | 0.0 | 0.00 | 0.00 | 0.00 | 99 | 1004.4 |
| 20260906063043 | 16 | 226 | 0.0 | 0.0 | 0.00 | 0.00 | 0.00 | 99 | 1004.4 |
| 20260906062539 | 16 | 226 | 0.0 | 0.0 | 0.00 | 0.00 | 0.00 | 99 | 1004.4 |
| 20260906062032 | 16 | 231 | 0.0 | 0.0 | 0.00 | 0.00 | 0.00 | 99 | 1004.3 |
| 20260906061529 | 17 | 231 | 0.0 | 0.0 | 0.00 | 0.00 | 0.00 | 99 | 1004.4 |
| 20260906061028 | 17 | 231 | 0.0 | 0.0 | 0.00 | 0.00 | 0.00 | 99 | 1004.2 |
| 20260906060525 | 17 | 231 | 0.0 | 0.0 | 0.00 | 0.00 | 0.00 | 99 | 1004.4 |
| 20260906060021 | 17 | 231 | 0.0 | 0.0 | 0.00 | 0.00 | 0.00 | 99 | 1004.4 |
| 20260906055518 | 17 | 238 | 0.0 | 0.0 | 0.00 | 0.00 | 0.00 | 99 | 1004.6 |
| 20260906055013 | 17 | 238 | 0.0 | 0.0 | 0.00 | 0.00 | 0.00 | 99 | 1004.4 |
| 20260906054513 | 17 | 239 | 0.0 | 0.0 | 0.00 | 0.00 | 0.00 | 99 | 1004.4 |
| 20260906054008 | 17 | 249 | 1.6 | 3.2 | 0.00 | 0.00 | 0.00 | 99 | 1004.6 |
| 20260906053504 | 17 | 235 | 0.0 | 0.0 | 0.00 | 0.00 | 0.00 | 99 | 1004.3 |
| 20260906053000 | 17 | 240 | 0.0 | 3.2 | 0.00 | 0.00 | 0.00 | 99 | 1004.2 |
| 20260906052455 | 17 | 247 | 3.2 | 3.2 | 0.00 | 0.00 | 0.00 | 99 | 1004.3 |
| 20260906051952 | 17 | 251 | 3.2 | 3.2 | 0.00 | 0.00 | 0.00 | 99 | 1004.2 |
| 20260906051447 | 17 | 239 | 0.0 | 0.0 | 0.00 | 0.00 | 0.00 | 99 | 1004.3 |
| 20260906050943 | 17 | 239 | 0.0 | 0.0 | 0.00 | 0.00 | 0.00 | 99 | 1004.2 |
| 20260906050442 | 17 | 249 | 0.0 | 0.0 | 0.00 | 0.00 | 0.00 | 99 | 1004.3 |
| 20260906045941 | 17 | 249 | 0.0 | 1.6 | 0.00 | 0.00 | 0.00 | 99 | 1004.3 |
| 20260906045441 | 17 | 245 | 0.0 | 0.0 | 0.00 | 0.00 | 0.00 | 99 | 1004.2 |
| 20260906044937 | 17 | 245 | 0.0 | 0.0 | 0.00 | 0.00 | 0.00 | 99 | 1004.2 |
| 20260906044432 | 17 | 245 | 0.0 | 0.0 | 0.00 | 0.00 | 0.00 | 99 | 1004.2 |
| 20260906043927 | 17 | 245 | 0.0 | 0.0 | 0.00 | 0.00 | 0.00 | 99 | 1004.2 |
| 20260906043423 | 17 | 245 | 0.0 | 0.0 | 0.00 | 0.00 | 0.00 | 99 | 1004.4 |
| 20260906042919 | 17 | 245 | 0.0 | 0.0 | 0.00 | 0.00 | 0.00 | 99 | 1004.6 |
| 20260906042418 | 17 | 245 | 0.0 | 0.0 | 0.00 | 0.00 | 0.00 | 99 | 1004.4 |
| 20260906041913 | 17 | 245 | 0.0 | 0.0 | 0.00 | 0.00 | 0.00 | 99 | 1004.3 |
| 20260906041409 | 17 | 245 | 0.0 | 0.0 | 0.00 | 0.00 | 0.00 | 99 | 1004.4 |
| 20260906040908 | 17 | 246 | 3.2 | 3.2 | 0.00 | 0.00 | 0.00 | 99 | 1004.6 |
| 20260906040404 | 17 | 246 | 1.6 | 3.2 | 0.00 | 0.00 | 0.00 | 99 | 1004.7 |
| 20260906035859 | 17 | 233 | 0.0 | 0.0 | 0.00 | 0.05 | 0.05 | 99 | 1004.8 |
| 20260906035355 | 17 | 250 | 1.6 | 3.2 | 0.00 | 0.05 | 0.05 | 99 | 1004.9 |
| 20260906034850 | 17 | 251 | 1.6 | 3.2 | 0.00 | 0.05 | 0.05 | 99 | 1005.0 |
| 20260906034344 | 17 | 241 | 3.2 | 3.2 | 0.00 | 0.05 | 0.05 | 99 | 1004.9 |
| 20260906033840 | 17 | 241 | 3.2 | 3.2 | 0.00 | 0.05 | 0.05 | 99 | 1005.1 |
| 20260906033339 | 17 | 250 | 0.0 | 3.2 | 0.00 | 0.05 | 0.05 | 99 | 1005.3 |
| 20260906032836 | 17 | 249 | 1.6 | 1.6 | 0.00 | 0.05 | 0.05 | 99 | 1005.1 |
| 20260906032331 | 17 | 249 | 3.2 | 3.2 | 0.00 | 0.05 | 0.05 | 99 | 1005.1 |
| 20260906031827 | 17 | 249 | 0.0 | 1.6 | 0.00 | 0.05 | 0.05 | 99 | 1005.3 |
| 20260906031322 | 17 | 249 | 1.6 | 3.2 | 0.00 | 0.05 | 0.05 | 99 | 1005.3 |
| 20260906030821 | 17 | 249 | 0.0 | 1.6 | 0.00 | 0.05 | 0.05 | 99 | 1005.4 |
| 20260906030316 | 17 | 249 | 0.0 | 0.0 | 0.00 | 0.05 | 0.05 | 99 | 1005.2 |
| 20260906025811 | 17 | 249 | 0.0 | 1.6 | 0.00 | 0.05 | 0.05 | 99 | 1005.1 |
| 20260906025306 | 17 | 249 | 0.0 | 0.0 | 0.00 | 0.05 | 0.05 | 99 | 1005.1 |
| 20260906024804 | 17 | 249 | 0.0 | 0.0 | 0.00 | 0.05 | 0.05 | 99 | 1005.0 |
| 20260906024304 | 17 | 249 | 0.0 | 0.0 | 0.00 | 0.05 | 0.05 | 99 | 1004.8 |
| 20260906023759 | 17 | 249 | 0.0 | 0.0 | 0.00 | 0.05 | 0.05 | 99 | 1005.1 |
| 20260906023254 | 18 | 249 | 0.0 | 0.0 | 0.00 | 0.05 | 0.05 | 99 | 1005.0 |
| 20260906022750 | 18 | 249 | 0.0 | 0.0 | 0.00 | 0.05 | 0.05 | 99 | 1004.8 |
| 20260906022245 | 18 | 249 | 0.0 | 0.0 | 0.00 | 0.05 | 0.05 | 99 | 1004.8 |
| 20260906021741 | 18 | 249 | 0.0 | 0.0 | 0.00 | 0.05 | 0.05 | 99 | 1005.0 |
| 20260906021240 | 18 | 249 | 0.0 | 0.0 | 0.00 | 0.05 | 0.05 | 99 | 1005.0 |
| 20260906020734 | 18 | 249 | 0.0 | 0.0 | 0.00 | 0.05 | 0.05 | 99 | 1005.0 |
| 20260906020229 | 18 | 249 | 0.0 | 0.0 | 0.00 | 0.05 | 0.05 | 99 | 1004.8 |
| 20260906015724 | 18 | 249 | 1.6 | 3.2 | 0.00 | 0.05 | 0.05 | 99 | 1004.8 |
| 20260906015222 | 18 | 252 | 1.6 | 3.2 | 0.00 | 0.05 | 0.05 | 99 | 1004.9 |
| 20260906014717 | 18 | 243 | 0.0 | 0.0 | 0.00 | 0.05 | 0.05 | 99 | 1004.7 |
| 20260906014213 | 18 | 243 | 0.0 | 0.0 | 0.00 | 0.05 | 0.05 | 99 | 1004.6 |
| 20260906013709 | 18 | 243 | 0.0 | 0.0 | 0.00 | 0.05 | 0.05 | 99 | 1004.6 |
| 20260906013209 | 18 | 243 | 0.0 | 0.0 | 0.00 | 0.05 | 0.05 | 99 | 1004.6 |
| 20260906012704 | 18 | 243 | 0.0 | 0.0 | 0.00 | 0.05 | 0.05 | 99 | 1004.4 |
| 20260906012204 | 18 | 235 | 0.0 | 0.0 | 0.00 | 0.05 | 0.05 | 99 | 1004.4 |
| 20260906011659 | 19 | 235 | 0.0 | 0.0 | 0.00 | 0.05 | 0.05 | 98 | 1004.3 |
| 20260906011154 | 19 | 235 | 0.0 | 0.0 | 0.00 | 0.05 | 0.05 | 98 | 1004.1 |
| 20260906010649 | 19 | 235 | 0.0 | 0.0 | 0.00 | 0.05 | 0.05 | 98 | 1004.2 |
| 20260906010146 | 19 | 235 | 0.0 | 0.0 | 0.00 | 0.05 | 0.05 | 98 | 1004.0 |
| 20260906005645 | 20 | 235 | 0.0 | 0.0 | 0.00 | 0.05 | 0.05 | 97 | 1004.0 |
| 20260906005144 | 20 | 235 | 0.0 | 0.0 | 0.00 | 0.05 | 0.05 | 97 | 1004.2 |
| 20260906004643 | 20 | 235 | 0.0 | 0.0 | 0.00 | 0.05 | 0.05 | 97 | 1003.9 |
| 20260906004139 | 20 | 235 | 0.0 | 0.0 | 0.00 | 0.05 | 0.05 | 97 | 1004.0 |
| 20260906003634 | 20 | 235 | 0.0 | 0.0 | 0.00 | 0.05 | 0.05 | 97 | 1004.0 |
| 20260906003130 | 20 | 235 | 0.0 | 0.0 | 0.00 | 0.05 | 0.05 | 97 | 1004.0 |
| 20260906002624 | 20 | 235 | 0.0 | 0.0 | 0.00 | 0.05 | 0.05 | 97 | 1003.8 |
| 20260906002119 | 20 | 235 | 0.0 | 0.0 | 0.00 | 0.05 | 0.05 | 97 | 1003.9 |
| 20260906001614 | 20 | 235 | 0.0 | 0.0 | 0.00 | 0.05 | 0.05 | 96 | 1003.8 |
| 20260906001109 | 20 | 235 | 0.0 | 0.0 | 0.00 | 0.05 | 0.05 | 96 | 1003.4 |
| 20260906000605 | 20 | 240 | 0.0 | 0.0 | 0.00 | 0.05 | 0.05 | 95 | 1003.5 |
| 20260906000100 | 20 | 240 | 1.6 | 1.6 | 0.00 | 0.05 | 0.05 | 95 | 1003.6 |
| 20260905235559 | 20 | 238 | 0.0 | 0.0 | 0.00 | 0.05 | 0.05 | 94 | 1003.7 |
| 20260905235054 | 21 | 238 | 0.0 | 1.6 | 0.00 | 0.05 | 0.05 | 94 | 1003.7 |
| 20260905234549 | 21 | 269 | 0.0 | 0.0 | 0.00 | 0.05 | 0.05 | 93 | 1003.7 |
| 20260905234044 | 21 | 273 | 0.0 | 3.2 | 0.00 | 0.05 | 0.05 | 93 | 1003.6 |
| 20260905233538 | 21 | 203 | 0.0 | 0.0 | 0.00 | 0.05 | 0.05 | 93 | 1003.6 |
| 20260905233039 | 21 | 203 | 0.0 | 0.0 | 0.00 | 0.05 | 0.05 | 92 | 1003.8 |
| 20260905232534 | 22 | 251 | 0.0 | 0.0 | 0.00 | 0.05 | 0.05 | 92 | 1003.7 |
| 20260905232029 | 22 | 251 | 1.6 | 1.6 | 0.00 | 0.05 | 0.05 | 91 | 1003.8 |
| 20260905231524 | 22 | 254 | 0.0 | 0.0 | 0.00 | 0.05 | 0.05 | 91 | 1003.7 |
| 20260905231021 | 22 | 286 | 1.6 | 4.8 | 0.00 | 0.05 | 0.05 | 90 | 1003.9 |
| 20260905230520 | 22 | 237 | 0.0 | 1.6 | 0.00 | 0.05 | 0.05 | 91 | 1003.7 |
| 20260905230018 | 22 | 237 | 0.0 | 4.8 | 0.00 | 0.05 | 0.05 | 91 | 1003.9 |
| 20260905225513 | 23 | 265 | 0.0 | 0.0 | 0.00 | 0.05 | 0.05 | 90 | 1003.7 |
| 20260905225009 | 23 | 269 | 0.0 | 1.6 | 0.00 | 0.05 | 0.05 | 89 | 1003.7 |
| 20260905224503 | 23 | 262 | 1.6 | 1.6 | 0.00 | 0.05 | 0.05 | 89 | 1003.6 |
| 20260905224003 | 23 | 272 | 1.6 | 1.6 | 0.00 | 0.05 | 0.05 | 89 | 1003.7 |
| 20260905223501 | 24 | 275 | 0.0 | 1.6 | 0.00 | 0.05 | 0.05 | 87 | 1003.5 |
| 20260905222956 | 24 | 276 | 0.0 | 1.6 | 0.00 | 0.05 | 0.05 | 87 | 1003.6 |
| 20260905222456 | 25 | 275 | 3.2 | 3.2 | 0.00 | 0.05 | 0.05 | 84 | 1003.6 |
| 20260905221951 | 26 | 268 | 0.0 | 1.6 | 0.00 | 0.05 | 0.05 | 81 | 1003.4 |
| 20260905221448 | 27 | 259 | 0.0 | 0.0 | 0.00 | 0.05 | 0.05 | 79 | 1003.5 |
| 20260905220943 | 28 | 168 | 0.0 | 0.0 | 0.00 | 0.05 | 0.05 | 74 | 1003.2 |
| 20260905220439 | 27 | 168 | 3.2 | 3.2 | 0.00 | 0.05 | 0.05 | 71 | 1003.3 |
| 20260905215938 | 28 | 339 | 3.2 | 4.8 | 0.00 | 0.05 | 0.05 | 71 | 1003.3 |
| 20260905215434 | 27 | 237 | 0.0 | 4.8 | 0.00 | 0.05 | 0.05 | 73 | 1003.1 |
| 20260905214930 | 28 | 155 | 4.8 | 9.7 | 0.00 | 0.05 | 0.05 | 70 | 1003.4 |
| 20260905214425 | 27 | 142 | 1.6 | 4.8 | 0.00 | 0.05 | 0.05 | 71 | 1003.1 |
| 20260905213920 | 28 | 45 | 0.0 | 6.4 | 0.00 | 0.05 | 0.05 | 69 | 1003.1 |
| 20260905213416 | 27 | 15 | 1.6 | 1.6 | 0.00 | 0.05 | 0.05 | 71 | 1003.0 |
| 20260905212911 | 28 | 42 | 1.6 | 3.2 | 0.00 | 0.05 | 0.05 | 69 | 1003.3 |
| 20260905212406 | 29 | 289 | 1.6 | 3.2 | 0.00 | 0.05 | 0.05 | 69 | 1003.3 |
| 20260905211900 | 30 | 338 | 1.6 | 4.8 | 0.00 | 0.05 | 0.05 | 65 | 1003.0 |
| 20260905211355 | 28 | 296 | 0.0 | 1.6 | 0.00 | 0.05 | 0.05 | 70 | 1003.1 |
| 20260905210851 | 28 | 236 | 1.6 | 3.2 | 0.00 | 0.05 | 0.05 | 69 | 1003.0 |
| 20260905210350 | 28 | 276 | 0.0 | 3.2 | 0.00 | 0.05 | 0.05 | 70 | 1003.2 |
| 20260905205849 | 28 | 290 | 3.2 | 4.8 | 0.00 | 0.05 | 0.05 | 71 | 1002.8 |
| 20260905205344 | 28 | 159 | 0.0 | 1.6 | 0.00 | 0.05 | 0.05 | 74 | 1002.9 |
| 20260905204838 | 28 | 153 | 1.6 | 11.3 | 0.00 | 0.05 | 0.05 | 71 | 1002.9 |
| 20260905204335 | 28 | 239 | 4.8 | 4.8 | 0.00 | 0.05 | 0.05 | 69 | 1003.0 |
| 20260905203833 | 29 | 53 | 0.0 | 3.2 | 0.00 | 0.05 | 0.05 | 71 | 1002.9 |
| 20260905203330 | 28 | 272 | 0.0 | 1.6 | 0.00 | 0.05 | 0.05 | 69 | 1003.0 |
| 20260905202825 | 27 | 231 | 0.0 | 4.8 | 0.00 | 0.05 | 0.05 | 71 | 1003.0 |
| 20260905202319 | 27 | 262 | 0.0 | 16.1 | 0.00 | 0.05 | 0.05 | 71 | 1003.3 |
| 20260905201815 | 27 | 162 | 1.6 | 3.2 | 0.00 | 0.05 | 0.05 | 70 | 1003.0 |
| 20260905201310 | 27 | 302 | 3.2 | 4.8 | 0.00 | 0.05 | 0.05 | 71 | 1003.0 |
| 20260905200804 | 27 | 255 | 3.2 | 6.4 | 0.00 | 0.05 | 0.05 | 73 | 1003.1 |
| 20260905200300 | 28 | 154 | 4.8 | 9.7 | 0.00 | 0.05 | 0.05 | 71 | 1003.1 |
| 20260905195753 | 27 | 148 | 1.6 | 3.2 | 0.00 | 0.05 | 0.05 | 73 | 1003.2 |
| 20260905195248 | 28 | 197 | 1.6 | 12.9 | 0.00 | 0.05 | 0.05 | 71 | 1003.3 |
| 20260905194744 | 28 | 311 | 4.8 | 6.4 | 0.00 | 0.05 | 0.05 | 69 | 1003.1 |
| 20260905194242 | 27 | 228 | 3.2 | 4.8 | 0.00 | 0.05 | 0.05 | 72 | 1003.3 |
| 20260905193737 | 27 | 318 | 1.6 | 4.8 | 0.00 | 0.05 | 0.05 | 71 | 1003.2 |
| 20260905193232 | 27 | 290 | 3.2 | 4.8 | 0.00 | 0.05 | 0.05 | 70 | 1003.2 |
| 20260905192727 | 27 | 247 | 3.2 | 6.4 | 0.00 | 0.05 | 0.05 | 74 | 1003.3 |
| 20260905192224 | 26 | 153 | 6.4 | 9.7 | 0.00 | 0.05 | 0.05 | 72 | 1003.4 |
| 20260905191723 | 27 | 138 | 4.8 | 4.8 | 0.00 | 0.05 | 0.05 | 71 | 1003.6 |
| 20260905191221 | 27 | 210 | 0.0 | 14.5 | 0.00 | 0.05 | 0.05 | 71 | 1003.5 |
| 20260905190720 | 28 | 145 | 6.4 | 6.4 | 0.00 | 0.05 | 0.05 | 67 | 1003.7 |
| 20260905190219 | 27 | 103 | 1.6 | 4.8 | 0.00 | 0.05 | 0.05 | 73 | 1003.6 |
| 20260905185718 | 27 | 185 | 1.6 | 16.1 | 0.00 | 0.05 | 0.05 | 69 | 1003.7 |
| 20260905185213 | 27 | 269 | 6.4 | 6.4 | 0.00 | 0.05 | 0.05 | 71 | 1003.8 |
| 20260905184713 | 28 | 231 | 1.6 | 3.2 | 0.00 | 0.05 | 0.05 | 70 | 1003.9 |
| 20260905184212 | 27 | 244 | 1.6 | 1.6 | 0.00 | 0.05 | 0.05 | 71 | 1003.9 |
| 20260905183706 | 27 | 181 | 1.6 | 6.4 | 0.00 | 0.05 | 0.05 | 74 | 1004.2 |
| 20260905183201 | 26 | 202 | 3.2 | 6.4 | 0.00 | 0.05 | 0.05 | 77 | 1004.1 |
| 20260905182700 | 26 | 103 | 0.0 | 3.2 | 0.00 | 0.05 | 0.05 | 79 | 1004.2 |
| 20260905182155 | 26 | 307 | 0.0 | 4.8 | 0.00 | 0.05 | 0.05 | 81 | 1004.3 |
| 20260905181650 | 26 | 257 | 3.2 | 4.8 | 0.00 | 0.05 | 0.05 | 80 | 1004.7 |
| 20260905181149 | 25 | 248 | 4.8 | 6.4 | 0.00 | 0.05 | 0.05 | 82 | 1004.6 |
| 20260905180644 | 25 | 154 | 4.8 | 6.4 | 0.00 | 0.05 | 0.05 | 83 | 1004.9 |
| 20260905180139 | 25 | 113 | 0.0 | 4.8 | 0.00 | 0.05 | 0.05 | 84 | 1004.9 |
| 20260905175638 | 25 | 161 | 4.8 | 11.3 | 0.00 | 0.05 | 0.05 | 84 | 1004.9 |
| 20260905175134 | 26 | 227 | 3.2 | 14.5 | 0.00 | 0.05 | 0.05 | 80 | 1004.9 |
| 20260905174629 | 26 | 107 | 0.0 | 3.2 | 0.00 | 0.05 | 0.05 | 80 | 1004.9 |
| 20260905174125 | 26 | 243 | 0.0 | 3.2 | 0.00 | 0.05 | 0.05 | 80 | 1005.0 |
| 20260905173621 | 25 | 167 | 1.6 | 6.4 | 0.00 | 0.05 | 0.05 | 84 | 1005.0 |
| 20260905173116 | 25 | 134 | 3.2 | 3.2 | 0.00 | 0.05 | 0.05 | 83 | 1005.0 |
| 20260905172615 | 25 | 300 | 3.2 | 4.8 | 0.00 | 0.05 | 0.05 | 83 | 1004.8 |
| 20260905172110 | 25 | 118 | 1.6 | 11.3 | 0.00 | 0.05 | 0.05 | 84 | 1005.0 |
| 20260905171607 | 25 | 140 | 1.6 | 4.8 | 0.00 | 0.05 | 0.05 | 83 | 1005.2 |
| 20260905171102 | 24 | 338 | 1.6 | 9.7 | 0.00 | 0.05 | 0.05 | 83 | 1005.5 |
| 20260905170558 | 25 | 237 | 0.0 | 4.8 | 0.00 | 0.05 | 0.05 | 83 | 1005.4 |
| 20260905170054 | 25 | 40 | 0.0 | 6.4 | 0.00 | 0.05 | 0.05 | 84 | 1005.3 |
| 20260905165548 | 24 | 248 | 3.2 | 6.4 | 0.00 | 0.05 | 0.05 | 85 | 1004.8 |
| 20260905165044 | 24 | 229 | 3.2 | 6.4 | 0.00 | 0.05 | 0.05 | 85 | 1004.3 |
| 20260905164543 | 24 | 271 | 3.2 | 6.4 | 0.00 | 0.05 | 0.05 | 85 | 1004.2 |
| 20260905164038 | 23 | 157 | 3.2 | 4.8 | 0.00 | 0.05 | 0.05 | 88 | 1004.4 |
| 20260905163535 | 23 | 136 | 1.6 | 9.7 | 0.00 | 0.05 | 0.05 | 86 | 1004.3 |
| 20260905163031 | 23 | 243 | 3.2 | 9.7 | 0.00 | 0.05 | 0.05 | 86 | 1004.4 |
| 20260905162526 | 24 | 143 | 3.2 | 6.4 | 0.00 | 0.05 | 0.05 | 85 | 1004.3 |
| 20260905162020 | 24 | 150 | 4.8 | 6.4 | 0.00 | 0.05 | 0.05 | 85 | 1005.0 |
| 20260905161515 | 23 | 251 | 3.2 | 6.4 | 0.00 | 0.05 | 0.05 | 87 | 1005.1 |
| 20260905161012 | 23 | 273 | 0.0 | 4.8 | 0.00 | 0.05 | 0.05 | 88 | 1005.2 |
| 20260905160506 | 23 | 212 | 1.6 | 6.4 | 0.00 | 0.05 | 0.05 | 87 | 1005.3 |
| 20260905160005 | 23 | 290 | 3.2 | 3.2 | 0.00 | 0.05 | 0.05 | 88 | 1005.9 |
| 20260905155500 | 23 | 139 | 4.8 | 6.4 | 0.00 | 0.05 | 0.05 | 87 | 1006.0 |
| 20260905154958 | 23 | 198 | 3.2 | 6.4 | 0.00 | 0.05 | 0.05 | 88 | 1006.4 |
| 20260905154454 | 23 | 261 | 1.6 | 4.8 | 0.00 | 0.05 | 0.05 | 87 | 1006.5 |
| 20260905153949 | 23 | 152 | 3.2 | 11.3 | 0.00 | 0.05 | 0.05 | 89 | 1006.5 |
| 20260905153445 | 22 | 232 | 0.0 | 4.8 | 0.00 | 0.05 | 0.05 | 90 | 1006.5 |
| 20260905152940 | 21 | 163 | 1.6 | 4.8 | 0.00 | 0.05 | 0.05 | 93 | 1006.6 |
| 20260905152439 | 22 | 207 | 1.6 | 4.8 | 0.00 | 0.05 | 0.05 | 92 | 1006.7 |
| 20260905151934 | 21 | 80 | 0.0 | 3.2 | 0.00 | 0.05 | 0.05 | 94 | 1006.5 |
| 20260905151430 | 21 | 108 | 0.0 | 0.0 | 0.18 | 0.05 | 0.05 | 94 | 1006.5 |
| 20260905150925 | 21 | 99 | 0.0 | 3.2 | 0.18 | 0.05 | 0.05 | 96 | 1006.9 |
| 20260905150425 | 20 | 86 | 0.0 | 0.0 | 0.00 | 0.03 | 0.03 | 95 | 1006.7 |
| 20260905145921 | 20 | 14 | 0.0 | 0.0 | 0.00 | 0.03 | 0.03 | 96 | 1006.7 |
| 20260905145415 | 20 | 54 | 0.0 | 1.6 | 0.00 | 0.03 | 0.03 | 96 | 1006.8 |
| 20260905144910 | 20 | 107 | 0.0 | 1.6 | 0.00 | 0.03 | 0.03 | 96 | 1007.0 |
| 20260905144405 | 20 | 59 | 1.6 | 1.6 | 0.00 | 0.03 | 0.03 | 95 | 1006.8 |
| 20260905143904 | 20 | 102 | 0.0 | 1.6 | 0.00 | 0.03 | 0.03 | 96 | 1006.8 |
| 20260905143358 | 21 | 51 | 6.4 | 11.3 | 0.00 | 0.03 | 0.03 | 94 | 1006.9 |
| 20260905142857 | 21 | 99 | 6.4 | 12.9 | 0.00 | 0.03 | 0.03 | 94 | 1007.0 |
| 20260905142355 | 22 | 85 | 8.0 | 14.5 | 0.00 | 0.03 | 0.03 | 92 | 1007.1 |
| 20260905141852 | 22 | 113 | 4.8 | 4.8 | 0.00 | 0.03 | 0.03 | 93 | 1006.9 |
| 20260905141347 | 22 | 31 | 1.6 | 6.4 | 0.00 | 0.03 | 0.03 | 93 | 1007.1 |
| 20260905140843 | 22 | 225 | 3.2 | 3.2 | 0.00 | 0.03 | 0.03 | 96 | 1007.3 |
| 20260905140338 | 22 | 225 | 0.0 | 0.0 | 0.00 | 0.03 | 0.03 | 95 | 1006.1 |
| 20260905135836 | 23 | 225 | 1.6 | 1.6 | 0.00 | 0.03 | 0.03 | 94 | 1005.7 |
| 20260905135332 | 23 | 225 | 0.0 | 3.2 | 0.00 | 0.03 | 0.03 | 94 | 1005.7 |
| 20260905134827 | 23 | 225 | 0.0 | 1.6 | 0.00 | 0.03 | 0.03 | 94 | 1005.6 |
| 20260905134320 | 23 | 233 | 1.6 | 3.2 | 0.00 | 0.03 | 0.03 | 94 | 1005.6 |
| 20260905133815 | 23 | 250 | 0.0 | 1.6 | 0.00 | 0.03 | 0.03 | 94 | 1005.5 |
| 20260905133310 | 23 | 214 | 0.0 | 3.2 | 0.00 | 0.03 | 0.03 | 94 | 1005.5 |
| 20260905132809 | 23 | 232 | 1.6 | 3.2 | 0.00 | 0.03 | 0.03 | 93 | 1005.5 |
| 20260905132306 | 23 | 222 | 1.6 | 4.8 | 0.00 | 0.03 | 0.03 | 93 | 1005.4 |
| 20260905131759 | 23 | 265 | 0.0 | 4.8 | 0.00 | 0.03 | 0.03 | 93 | 1005.2 |
| 20260905131255 | 23 | 227 | 3.2 | 4.8 | 0.00 | 0.03 | 0.03 | 92 | 1005.3 |
| 20260905130749 | 23 | 238 | 1.6 | 6.4 | 0.00 | 0.03 | 0.03 | 93 | 1005.2 |
| 20260905130249 | 23 | 200 | 4.8 | 9.7 | 0.00 | 0.03 | 0.03 | 94 | 1005.4 |
| 20260905125744 | 22 | 226 | 1.6 | 1.6 | 0.00 | 0.03 | 0.03 | 96 | 1005.3 |
| 20260905125239 | 22 | 226 | 0.0 | 1.6 | 0.00 | 0.03 | 0.03 | 97 | 1005.4 |
| 20260905124736 | 22 | 226 | 1.6 | 3.2 | 0.00 | 0.03 | 0.03 | 96 | 1005.4 |
| 20260905124231 | 22 | 226 | 0.0 | 3.2 | 0.00 | 0.03 | 0.03 | 98 | 1005.4 |
| 20260905123726 | 21 | 226 | 1.6 | 3.2 | 0.00 | 0.03 | 0.03 | 99 | 1005.4 |
| 20260905123223 | 21 | 226 | 1.6 | 3.2 | 0.00 | 0.03 | 0.03 | 99 | 1005.3 |
| 20260905122723 | 21 | 226 | 3.2 | 3.2 | 0.00 | 0.03 | 0.03 | 99 | 1005.3 |
| 20260905122217 | 21 | 250 | 0.0 | 0.0 | 0.00 | 0.03 | 0.03 | 99 | 1005.5 |
| 20260905121712 | 20 | 250 | 0.0 | 0.0 | 0.00 | 0.03 | 0.03 | 99 | 1005.2 |
| 20260905121209 | 20 | 251 | 0.0 | 0.0 | 0.00 | 0.03 | 0.03 | 99 | 1005.3 |
| 20260905120707 | 20 | 251 | 0.0 | 1.6 | 0.00 | 0.03 | 0.03 | 99 | 1005.2 |
| 20260905120202 | 20 | 251 | 3.2 | 3.2 | 0.00 | 0.03 | 0.03 | 99 | 1005.3 |
| 20260905115702 | 19 | 298 | 3.2 | 3.2 | 0.00 | 0.03 | 0.03 | 99 | 1005.4 |
| 20260905115156 | 19 | 248 | 1.6 | 3.2 | 0.00 | 0.03 | 0.03 | 99 | 1005.2 |
| 20260905114656 | 18 | 254 | 3.2 | 3.2 | 0.00 | 0.03 | 0.03 | 99 | 1005.3 |
| 20260905114154 | 18 | 246 | 1.6 | 1.6 | 0.00 | 0.03 | 0.03 | 99 | 1005.4 |
| 20260905113649 | 18 | 243 | 0.0 | 0.0 | 0.00 | 0.03 | 0.03 | 99 | 1005.3 |
| 20260905113145 | 18 | 243 | 0.0 | 0.0 | 0.00 | 0.03 | 0.03 | 99 | 1005.4 |
| 20260905112644 | 18 | 243 | 0.0 | 0.0 | 0.00 | 0.03 | 0.03 | 99 | 1005.4 |
| 20260905112141 | 18 | 243 | 1.6 | 1.6 | 0.00 | 0.03 | 0.03 | 99 | 1005.2 |
| 20260905111640 | 18 | 252 | 1.6 | 1.6 | 0.00 | 0.03 | 0.03 | 99 | 1005.2 |